www.pogodaiklimat.ru

Погода и климат >> Архив погоды >> Китай >> Хэйлунцзян >> Тайлай


ПОГОДА в Тайлае

  • Прогноз погоды в Тайлае
  • Монитор погоды в Тайлае

АРХИВ ПОГОДЫ в Тайлае

Время (UTC), дата Ветер
(напр.,м/с)
 
Видим.   Явления Облачность Т
(С)
Тd
(С)
f
(%)
Тe
(С)
Тes
(С)
Комфортность P
(гПа)
Po
(гПа)
Тmin
(С)
Tmax
(С)
R
(мм)
R24
(мм)
S
(см)
21 19.05 С 7 н/о слаб. дождь н/о +6.8 +6.1 95 +2 +2 983.0 965.2
00 20.05 С 6 30 км 10/10 1500 м
[]
+6.7 +4.9 88 +2 +2 985.2 967.3 0.4
03 20.05 С 6 23 км в посл. час дождь 10/10 1500 м
[]
+7.3 +4.6 83 +3 +3 987.7 969.8
06 20.05 С 10
{19}
30 км {дождь} 10/10 1500 м
[]
+9.1 +5.1 76 +4 +4 989.5 971.7 +5.7 1
09 20.05 С 6
{19}
11 км слаб. дождь 9/9 1000 м
[]
+9.5 +7.3 86 +6 +6 991.0 973.2
12 20.05 С 7
{17}
23 км слаб. дождь 10/10 1500 м
[]
+9.8 +7.1 83 +6 +6 992.4 975.7 3
18 20.05 СЗ 3 21 км слаб. дождь ?/? +9.0 +7.0 87 +6 +6 990.6 972.8 +10.6 1
21 20.05 С 4 30 км слаб. дождь н/о +9.7 +6.4 80 +7 +7 990.5 972.7
00 21.05 С 6 30 км 9/9 1500 м
[]
+10.5 +7.2 80 +7 +8 991.6 973.8 2
03 21.05 СЗ 7 30 км 9/9 1500 м
[]
+11.8 +5.9 67 +9 +9 993.2 975.5
06 21.05 С 6 30 км 9/9 1500 м
[]
+15.3 +5.8 53 +14 +14 993.8 976.3 +8.8
09 21.05 С 6 30 км 9/9 1500 м
[]
+13.5 +4.4 54 +12 +12 995.2 977.6
12 21.05 С 2 30 км 8/8 1500 м
[]
+11.9 +6.0 67 +11 +11 997.2 979.4
18 21.05 З 3 30 км ?/? +9.2 +4.6 73 +7 +7 997.6 979.7 +15.4
21 21.05 С 2 30 км н/о +8.0 +3.5 73 +6 +6 998.5 980.5
00 22.05 СЗ 5 30 км ясно +13.8 +2.7 47 +12 +17 999.0 981.3
03 22.05 З 3 30 км ясно +16.7 +3.0 40 +17 +31 опасность
простуды
998.6 981.1
06 22.05 ЮЗ 2 30 км ясно +20.6 +2.0 29 +22 +36 комфорт 997.4 980.1 +7.3
09 22.05 ЮВ 5 30 км ясно +19.6 +6.0 41 +20 +22 997.4 980.1
12 22.05 В 3 30 км ясно +16.0 +5.3 49 +16 +16 999.1 981.5
18 22.05 В 1 30 км ?/? +10.6 +6.4 75 +10 +10 1002.5 984.6 +21.0
21 22.05 В 1 21 км н/о +7.6 +6.4 92 +7 +7 1003.8 985.6
00 23.05 Ю 2 30 км ясно +16.9 +6.1 49 +17 +26 1004.7 987.1
03 23.05 Ю 3 30 км 1/1 1000 м
[]
+19.7 +7.8 46 +21 +34 комфорт 1004.5 987.1
06 23.05 Ю 5 30 км 3/3 1000 м
[]
+23.1 +8.8 40 +24 +30 комфорт 1002.6 986.3 +6.2
09 23.05 Ю 5 30 км ясно +24.8 +9.5 38 +26 +27 жарко 1001.0 983.9
12 23.05 Ю 4 30 км 4/4
[]
+21.5 +11.5 53 +24 +24 комфорт 999.9 983.7
18 23.05 Ю 2 30 км ?/? +18.3 +8.8 54 +19 +19 996.8 979.4 +25.0
21 23.05 Ю 3 28 км н/о +16.8 +9.0 60 +17 +17 995.4 978.0
00 24.05 Ю 5 25 км ясно +21.7 +9.6 46 +23 +28 комфорт 994.9 977.8
03 24.05 ЮЗ 4 30 км ясно +28.3 +10.5 33 +29 +41 жарко 994.2 977.4
06 24.05 Ю 6 28 км 8/8
[]
+34.5 +12.8 27 +35 +36 очень
жарко
991.3 974.9 +16.6
09 24.05 ЮЗ 6 30 км 9/9
[]
+37.4 +5.4 14 +35 +35 очень
жарко
990.0 973.8
12 24.05 ЮЗ 4 30 км 5/5
[]
+30.8 +6.6 22 +29 +29 жарко 991.2 974.6
18 24.05 З 1 21 км ?/? +21.1 +9.0 46 +22 +22 комфорт 993.7 976.5 +38.6
21 24.05 С 6 28 км н/о +19.7 +10.4 55 +21 +21 комфорт 995.8 978.5
00 25.05 С 4 27 км ясно +20.9 +11.3 54 +23 +29 комфорт 997.8 980.6
03 25.05 С 8 23 км 9/9
[]
+22.0 +10.8 49 +24 +24 комфорт 1001.5 984.3
06 25.05 С 7 22 км 8/8 1500 м
[]
+22.8 +8.1 39 +24 +25 комфорт 1003.0 985.8 +19.6
09 25.05 С 8 29 км 9/9 1500 м
[]
+20.9 +6.4 39 +22 +22 комфорт 1003.1 985.8
12 25.05 С 7 30 км 9/9 1000 м
[]
+16.9 +4.6 44 +16 +16 1007.4 989.8
18 25.05 С 3 13 км слаб. дождь ?/? +11.9 +11.0 94 +10 +10 1011.4 993.4 +23.3 13
21 25.05 С 2 30 км слаб. дождь н/о +11.4 +10.0 91 +10 +10 1012.6 994.5
00 26.05 С 2 16 км 10/10
[]
+12.1 +11.0 93 +11 +11 1014.1 996.0 6
03 26.05 В 2 30 км в посл. час дождь 9/9 1500 м
[]
+13.4 +10.4 82 +13 +15 1013.2 995.2
06 26.05 С 2 25 км слаб. дождь 10/10 1500 м
[]
+13.9 +10.9 82 +13 +13 1013.0 996.3 +11.2 2
09 26.05 СВ 2 30 км {дождь} 9/9 1500 м
[]
+13.8 +9.6 76 +13 +14 1012.4 994.5
12 26.05 СЗ 1 17 км {дождь} 9/9 1500 м
[]
+12.9 +10.4 85 +13 +13 1012.2 994.2 0.2

 

Местоположение метеостанции Тайлай (Хэйлунцзян, Китай): широта 46.40 долгота 123.41 высота над уровнем моря 150 м.

В архиве по умолчанию представлена погода в Тайлае за последнюю неделю. Архивные данные за месяц целиком и за предыдущие месяцы, начиная с января 2011 года, Вы можете получить, выбрав интересующий диапазон дат из раскрывающегося списка и нажав кнопку "Ввод!".


*Определитесь, кто Вы:
робот инопланетянин человек

Внимание! Время в таблицах - всемирное. Для получения местного времени необходимо прибавить поправку, которая равна 8 ч.

Смотрите также архив погоды в соседних городах и на ближайших метеорологических станциях:

Погода в Цицикаре (Хэйлунцзян, Китай) (115 км)
Погода в Аньда (Хэйлунцзян, Китай) (146 км)
Погода в Цянь Горлос (Гирин, Китай) (185 км)
Погода в Чанлине (Гирин, Китай) (243 км)
Погода в Кэшане (Хэйлунцзян, Китай) (262 км)
Погода в Харбине (Хэйлунцзян, Китай) (268 км)
Погода в Аршане (Внутренняя Монголия, Китай) (279 км)
Погода в Джаруд-Ци (Внутренняя Монголия, Китай) (282 км)
Погода в Ксиджоу (Внутренняя Монголия, Китай) (287 км)
Погода в Хайлуне (Хэйлунцзян, Китай) (293 км)

Пояснения к столбцам:

Ветер - указаны скорость ветра в м/с - средняя за 10 мин, порывы в срок и между сроками (в фигурных скобках) и направление, откуда дует ветер: С - северный, СВ - северо-восточный, В - восточный, ЮВ - юго-восточный, Ю - южный, ЮЗ - юго-западный, З - западный, СЗ - северо-западный.
Видимость - горизонтальная дальность видимости в метрах или километрах. При видимости от 1 до 10 км при отсутствии осадков обычно наблюдается дымка, при ухудшении видимости до 1 км и менее - туман. В сухую погоду видимость может ухудшаться дымом, пылью или мглою.
Явления - указаны атмосферные явления, наблюдавшиеся в срок или в последний час перед сроком; фигурными скобками обозначены явления, наблюдавшиеся между сроками (за 1-3 часа до срока); квадратными скобками обозначены град или гололедные отложения с указанием их диаметра в мм.
Облачность - указаны через наклонную черту общая и нижняя облачность в баллах и высота нижней границы облаков в метрах; квадратными скобками обозначены формы облаков: Ci - перистые, Cs - перисто-слоистые, Cc - перисто-кучевые, Ac - высококучевые, As - высокослоистые, Sc - слоисто-кучевые, Ns - слоисто-дождевые, Cu - кучевые, Cb - кучево-дождевые. Подробнее классификацию облаков см. в Атласе облаков (PDF).
T - Температура воздуха - температура, измеренная на высоте 2 м над землей.
Td - Температура точки росы - температура, при понижении до которой содержащийся в воздухе водяной пар достигнет насыщения.
f - Относительная влажность воздуха - влажноcть воздуха, измеренная на высоте 2 м над землей.
Te - Эффективная температура - температура, которую ощущает одетый по сезону человек в тени. Характеристика душности погоды. При расчете учитывается влияние влажности воздуха и скорости ветра на теплоощущения человека.
Tes - Эффективная температура на солнце - температура, которую ощущает человек, с поправкой на солнечный нагрев. Характеристика знойности погоды. Зависит от высоты солнца над горизонтом, облачности и скорости ветра. Ночью, в пасмурную погоду, а также при ветре 12 м/с и более поправка равна нулю.
P - Атмосферное давление - приведенное к уровню моря атмосферное давление.
Po - Атмосферное давление - измеренное на уровне метеостанции атмосферное давление.
Tmin - Минимальная температура - минимум температуры воздуха на высоте 2 м над землей.
Tmax - Максимальная температура - максимум температуры воздуха на высоте 2 м над землей.
R - Количество осадков - Количество выпавших осадков за период времени, мм. При наведении курсора мыши на число - период времени, за который выпало указанное количество осадков.
R24 - Количество осадков - Количество выпавших осадков за 24 часа, мм.
S - Снежный покров - Высота снежного покрова, см. При наведении курсора мыши на число - состояние снежного покрова и степень покрытия местности в баллах.